Weather History for Tampa, FL

Change the Weather History Date:

Thursday, August 21, 2014

  Actual Average Record
Temperature  
Mean Temperature 85 °F 83 °F  
Max Temperature 95 °F 90 °F 96 °F (2007)
Min Temperature 74 °F 76 °F 70 °F (1937)
Degree Days  
Heating Degree Days 0 0  
Month to date heating degree days 0 0  
Since 1 June heating degree days 0 0  
Since 1 July heating degree days 0 0  
Cooling Degree Days 20 18  
Month to date cooling degree days 402 378  
Year to date cooling degree days 2315 2329  
Since 1 June cooling degree days 1492 1452  
Growing Degree Days 37 (Base 50)    
Moisture  
Dew Point 72 °F    
Average Humidity 67    
Maximum Humidity 85    
Minimum Humidity 49    
Precipitation  
Precipitation 0.00 in 0.26 in 2.27 in (1917)
Month to date precipitation 3.04 5.25  
Year to date precipitation 36.82 31.20  
Sea Level Pressure  
Sea Level Pressure 30.10 in    
Wind  
Wind Speed 5 mph (NW)    
Max Wind Speed 18 mph    
Max Gust Speed 24 mph    
Visibility 10 miles    
Events      
T = Trace of Precipitation, MM = Missing Value Source: NWS Daily Summary

Daily Weather History Graph

Daily Weather History Graph

Search for Another Location

Airport:

Trip Planner

Search our weather history database for the weather conditions in past years. The results will help you decide how hot, cold, wet, or windy it might be!

Date:

Astronomy

Aug. 21, 2014 Rise Set
Actual Time 7:03 AM EDT 8:02 PM EDT
Civil Twilight 6:39 AM EDT 8:26 PM EDT
Nautical Twilight 6:10 AM EDT 8:55 PM EDT
Astronomical Twilight 5:40 AM EDT 9:25 PM EDT
Moon 3:41 AM EDT (8/21) 5:23 PM EDT (8/21)
Length of Visible Light 13h 47m
Length of Day
12h 59m
Waning Crescent, 13% of the Moon is Illuminated
Aug 21
Waning Crescent
Aug 25
New
Sep 2
First Quarter
Sep 8
Full
Sep 15
Last Quarter

Hourly Weather History & Observations

Time (EDT) Temp. Heat Index Dew Point Humidity Pressure Visibility Wind Dir Wind Speed Gust Speed Precip Events Conditions
12:53 AM 81.0 °F 86.7 °F 75.0 °F 82% 30.10 in 10.0 mi NNW 3.5 mph - N/A   Partly Cloudy
1:53 AM 81.0 °F 86.2 °F 73.9 °F 79% 30.10 in 10.0 mi North 3.5 mph - N/A   Partly Cloudy
2:53 AM 81.0 °F 86.2 °F 73.9 °F 79% 30.10 in 10.0 mi SE 3.5 mph - N/A   Clear
3:53 AM 81.0 °F 86.2 °F 73.9 °F 79% 30.09 in 10.0 mi Calm Calm - N/A   Partly Cloudy
4:53 AM 80.1 °F 84.5 °F 73.9 °F 81% 30.08 in 10.0 mi Calm Calm - N/A   Partly Cloudy
5:53 AM 81.0 °F 86.2 °F 73.9 °F 79% 30.09 in 10.0 mi Calm Calm - N/A   Partly Cloudy
6:53 AM 80.1 °F 84.5 °F 73.9 °F 81% 30.10 in 10.0 mi NE 3.5 mph - N/A   Scattered Clouds
7:53 AM 81.0 °F 86.7 °F 75.0 °F 82% 30.12 in 10.0 mi Calm Calm - N/A   Partly Cloudy
8:53 AM 86.0 °F 96.0 °F 75.9 °F 72% 30.14 in 10.0 mi Variable 4.6 mph - N/A   Partly Cloudy
9:53 AM 88.0 °F 97.5 °F 75.0 °F 65% 30.14 in 10.0 mi NNE 5.8 mph - N/A   Partly Cloudy
10:53 AM 93.0 °F 101.9 °F 73.0 °F 52% 30.14 in 10.0 mi NNW 6.9 mph - N/A   Partly Cloudy
11:53 AM 90.0 °F 95.4 °F 70.0 °F 52% 30.14 in 10.0 mi Variable 4.6 mph - N/A   Scattered Clouds
12:53 PM 91.0 °F 100.4 °F 73.9 °F 57% 30.12 in 10.0 mi West 8.1 mph - N/A   Scattered Clouds
1:53 PM 91.0 °F 99.3 °F 73.0 °F 55% 30.09 in 10.0 mi WSW 9.2 mph - N/A   Scattered Clouds
2:53 PM 93.0 °F 100.7 °F 72.0 °F 50% 30.07 in 10.0 mi WSW 10.4 mph - N/A   Partly Cloudy
3:53 PM 91.9 °F 100.7 °F 73.0 °F 54% 30.06 in 10.0 mi WSW 9.2 mph - N/A   Partly Cloudy
4:53 PM 93.9 °F 103.4 °F 73.0 °F 51% 30.04 in 10.0 mi West 11.5 mph 19.6 mph N/A   Partly Cloudy
5:53 PM 91.9 °F 98.4 °F 71.1 °F 50% 30.04 in 10.0 mi West 10.4 mph - N/A   Partly Cloudy
6:53 PM 91.9 °F 98.4 °F 71.1 °F 50% 30.05 in 10.0 mi NW 9.2 mph - N/A   Scattered Clouds
7:53 PM 84.0 °F 86.5 °F 66.9 °F 56% 30.11 in 10.0 mi SSE 11.5 mph 20.7 mph N/A   Scattered Clouds
8:53 PM 82.9 °F 85.4 °F 66.9 °F 58% 30.10 in 10.0 mi North 5.8 mph - N/A   Scattered Clouds
9:53 PM 82.9 °F 85.4 °F 66.9 °F 58% 30.11 in 10.0 mi North 3.5 mph - N/A   Mostly Cloudy
10:53 PM 82.0 °F 85.5 °F 69.1 °F 65% 30.11 in 10.0 mi Variable 3.5 mph - N/A   Mostly Cloudy
11:53 PM 82.9 °F 87.5 °F 71.1 °F 67% 30.12 in 10.0 mi NE 4.6 mph - N/A   Mostly Cloudy